Bangkok (Don Mueang), Thailand

8:51 AM +07 on December 13, 2017 (GMT +0700)
Bangkok International

Weather History for VTBD - January, 2013

Change the Weather History Date:

Monday, January 14, 2013

  Actual Average Record
Temperature  
Mean Temperature 82 °F -  
Max Temperature 90 °F 89 °F 96 °F (1997)
Min Temperature 75 °F 73 °F 60 °F (2009)
Cooling Degree Days 18    
Growing Degree Days 32 (Base 50)    
Moisture  
Dew Point 62 °F    
Average Humidity 54    
Maximum Humidity 83    
Minimum Humidity 23    
Precipitation  
Precipitation 0.00 in 0.02 in - ()
Sea Level Pressure  
Sea Level Pressure 29.84 in    
Wind  
Wind Speed 3 mph ()    
Max Wind Speed 12 mph    
Max Gust Speed -    
Visibility 5.5 miles    
Events      
Averages and records for this station are not official NWS values.
T = Trace of Precipitation, MM = Missing Value Source: Averaged Metar Reports

Daily Weather History Graph

Daily Weather History Graph

Search for Another Location

Airport or City:

Trip Planner

Search our weather history database for the weather conditions in past years. The results will help you decide how hot, cold, wet, or windy it might be!

Date:

Astronomy

Jan. 14, 2013 Rise Set
Actual Time 6:45 AM +07 6:08 PM +07
Civil Twilight 6:22 AM +07 6:31 PM +07
Nautical Twilight 5:55 AM +07 6:57 PM +07
Astronomical Twilight 5:29 AM +07 7:23 PM +07
Moon 8:32 AM +07 (1/14) 8:41 PM +07 (1/14)
Length of Visible Light 12h 08m
Length of Day
11h 23m
Waxing Crescent, 8% of the Moon is Illuminated
Jan 14
Waxing Crescent
Jan 19
First Quarter
Jan 27
Full
Feb 3
Last Quarter
Feb 10
New

Hourly Weather History & Observations

Time (+07) Temp. Heat Index Dew Point Humidity Pressure Visibility Wind Dir Wind Speed Gust Speed Precip Events Conditions
12:00 AM 80.6 °F 83.9 °F 69.8 °F 70% 29.83 in - Calm Calm - N/A   Clear
12:30 AM 80.6 °F 84.6 °F 71.6 °F 74% 29.83 in - WSW 2.3 mph - N/A   Clear
1:00 AM 80 °F - 70 °F 65% 29.85 in 6 mi Calm Calm - -   Scattered Clouds
1:00 AM 80.6 °F 83.9 °F 69.8 °F 70% 29.83 in - Calm Calm - N/A   Clear
1:30 AM 78.8 °F - 69.8 °F 74% 29.83 in - North 4.6 mph - N/A   Clear
2:30 AM 77.0 °F - 68.0 °F 74% 29.80 in - NNW 3.5 mph - N/A   Unknown
3:00 AM 77.0 °F - 69.8 °F 78% 29.80 in 5.0 mi NNW 5.8 mph - N/A   Unknown
3:30 AM 77.0 °F - 69.8 °F 78% 29.80 in 5.0 mi Calm Calm - N/A   Unknown
4:00 AM 77.0 °F - 69.8 °F 78% 29.80 in 5.0 mi Calm Calm - N/A   Scattered Clouds
4:30 AM 77.0 °F - 69.8 °F 78% 29.83 in 5.0 mi Calm Calm - N/A   Scattered Clouds
5:00 AM 75.2 °F - 69.8 °F 83% 29.83 in 5.0 mi WNW 3.5 mph - N/A   Scattered Clouds
5:30 AM 75.2 °F - 68.0 °F 78% 29.83 in 5.0 mi WNW 3.5 mph - N/A   Scattered Clouds
6:00 AM 75.2 °F - 68.0 °F 78% 29.86 in 4.3 mi WNW 4.6 mph - N/A   Scattered Clouds
6:30 AM 75.2 °F - 66.2 °F 73% 29.86 in 4.3 mi WNW 3.5 mph - N/A   Scattered Clouds
7:00 AM 76 °F - 65 °F 60% 29.89 in 4 mi WNW 4.6 mph - -   Mist
7:00 AM 75.2 °F - 64.4 °F 69% 29.86 in 4.3 mi WNW 4.6 mph - N/A   Scattered Clouds
7:30 AM 75.2 °F - 62.6 °F 65% 29.89 in 5.0 mi WNW 5.8 mph - N/A   Scattered Clouds
8:00 AM 75.2 °F - 62.6 °F 65% 29.89 in - WNW 8.1 mph - N/A   Clear
8:30 AM 78.8 °F - 64.4 °F 61% 29.89 in - West 6.9 mph - N/A   Clear
9:00 AM 78.8 °F - 62.6 °F 57% 29.92 in - WNW 11.5 mph - N/A   Clear
9:30 AM 82.4 °F 83.4 °F 62.6 °F 51% 29.92 in - NNW 8.1 mph - N/A   Clear
10:00 AM 82.4 °F 82.9 °F 60.8 °F 48% 29.92 in - West 3.5 mph - N/A   Clear
10:30 AM 84.2 °F 83.8 °F 59.0 °F 42% 29.92 in - NNE 3.5 mph - N/A   Clear
11:00 AM 86.0 °F 85.4 °F 59.0 °F 40% 29.89 in - West 4.6 mph - N/A   Clear
11:30 AM 86.0 °F 84.9 °F 57.2 °F 37% 29.92 in - WSW 6.9 mph - N/A   Clear
12:00 PM 87.8 °F 87.1 °F 59.0 °F 38% 29.86 in 6.2 mi SSW 8.1 mph - N/A   Scattered Clouds
12:30 PM 87.8 °F 86.5 °F 57.2 °F 35% 29.86 in 6.2 mi SSW 5.8 mph - N/A   Scattered Clouds
1:00 PM 89 °F - 57 °F 23% 29.86 in 6 mi WNW 3.5 mph - -   Scattered Clouds
1:00 PM 89.6 °F 88.1 °F 57.2 °F 33% 29.83 in 6.2 mi WNW 3.5 mph - N/A   Scattered Clouds
1:30 PM 89.6 °F 88.1 °F 57.2 °F 33% 29.80 in 6.2 mi West 4.6 mph - N/A   Scattered Clouds
2:00 PM 91.4 °F 89.9 °F 57.2 °F 31% 29.80 in 6.2 mi WSW 4.6 mph - N/A   Scattered Clouds
2:30 PM 89.6 °F 87.7 °F 55.4 °F 31% 29.80 in 6.2 mi SSW 3.5 mph - N/A   Scattered Clouds
3:00 PM 89.6 °F 87.7 °F 55.4 °F 31% 29.77 in 6.2 mi SSW 5.8 mph - N/A   Scattered Clouds
3:30 PM 89.6 °F 87.7 °F 55.4 °F 31% 29.77 in 6.2 mi SSW 8.1 mph - N/A   Scattered Clouds
4:00 PM 89.6 °F 87.7 °F 55.4 °F 31% 29.77 in 6.2 mi WSW 9.2 mph - N/A   Scattered Clouds
4:30 PM 89.6 °F 87.7 °F 55.4 °F 31% 29.80 in - ESE 3.5 mph - N/A   Clear
5:00 PM 87.8 °F 85.7 °F 53.6 °F 31% 29.80 in - SSW 6.9 mph - N/A   Clear
5:30 PM 87.8 °F 85.7 °F 53.6 °F 31% 29.80 in - SSW 8.1 mph - N/A   Clear
6:00 PM 84.2 °F 82.8 °F 53.6 °F 35% 29.80 in - South 5.8 mph - N/A   Clear
6:30 PM 82.4 °F 82.0 °F 57.2 °F 42% 29.83 in - SSW 5.8 mph - N/A   Clear
7:00 PM 80 °F - 56 °F 34% 29.85 in 6 mi Calm Calm - -   Clear
7:00 PM 80.6 °F 80.8 °F 57.2 °F 45% 29.83 in - Calm Calm - N/A   Clear
7:30 PM 78.8 °F - 59.0 °F 51% 29.83 in - SSE 3.5 mph - N/A   Clear
8:00 PM 78.8 °F - 59.0 °F 51% 29.83 in - South 3.5 mph - N/A   Clear
8:30 PM 77.0 °F - 60.8 °F 57% 29.83 in - SSW 2.3 mph - N/A   Clear
9:00 PM 77.0 °F - 60.8 °F 57% 29.83 in - WSW 3.5 mph - N/A   Clear
9:30 PM 75.2 °F - 62.6 °F 65% 29.83 in - SSW 2.3 mph - N/A   Clear
10:00 PM 77.0 °F - 60.8 °F 57% 29.83 in - South 2.3 mph - N/A   Clear
10:30 PM 75.2 °F - 62.6 °F 65% 29.83 in - SSE 2.3 mph - N/A   Clear
11:00 PM 77.0 °F - 60.8 °F 57% 29.83 in - WSW 2.3 mph - N/A   Clear
11:30 PM 77.0 °F - 64.4 °F 65% 29.83 in - SSW 3.5 mph - N/A   Clear